Weather History for Kirksville, MO

Change the Weather History Date:

Thursday, March 7, 2013

  Actual Average Record
Temperature  
Mean Temperature 23 °F 37 °F  
Max Temperature 34 °F 47 °F 74 °F (1925)
Min Temperature 11 °F 27 °F -4 °F (1920)
Degree Days  
Heating Degree Days 42 28  
Month to date heating degree days 278 205  
Since 1 July heating degree days 4658 4738  
Cooling Degree Days 0 0  
Month to date cooling degree days 0 0  
Year to date cooling degree days 0 0  
Moisture  
Dew Point 18 °F    
Average Humidity 79    
Maximum Humidity 96    
Minimum Humidity 61    
Precipitation  
Precipitation 0.00 in 0.08 in 0.40 in (1961)
Month to date precipitation 0.15 0.56  
Year to date precipitation 5.60 3.36  
Sea Level Pressure  
Sea Level Pressure 30.37 in    
Wind  
Wind Speed 7 mph (ESE)    
Max Wind Speed 13 mph    
Max Gust Speed 16 mph    
Visibility 6 miles    
Events      
T = Trace of Precipitation, MM = Missing Value Source: NWS Daily Summary

Daily Weather History Graph

Daily Weather History Graph

Search for Another Location

Airport:

Trip Planner

Search our weather history database for the weather conditions in past years. The results will help you decide how hot, cold, wet, or windy it might be!

Date:

Astronomy

Mar. 07, 2013 Rise Set
Actual Time 6:33 AM CST 6:08 PM CST
Civil Twilight 6:06 AM CST 6:35 PM CST
Nautical Twilight 5:35 AM CST 7:07 PM CST
Astronomical Twilight 5:04 AM CST 7:38 PM CST
Moon 3:34 AM CST (3/7) 1:57 PM CST (3/7)
Length of Visible Light 12h 29m
Length of Day
11h 34m
Waning Crescent, 20% of the Moon is Illuminated
Mar 7
Waning Crescent
Mar 11
New
Mar 19
First Quarter
Mar 27
Full
Apr 2
Last Quarter

Hourly Weather History & Observations

Time (CST) Temp. Windchill Dew Point Humidity Pressure Visibility Wind Dir Wind Speed Gust Speed Precip Events Conditions
12:55 AM 16.0 °F 10.4 °F 14.0 °F 92% 30.40 in 7.0 mi East 3.5 mph - N/A   Clear
1:55 AM 15.1 °F 7.7 °F 12.9 °F 91% 30.41 in 4.0 mi ENE 4.6 mph - N/A   Clear
2:55 AM 16.0 °F 8.8 °F 14.0 °F 92% 30.39 in 4.0 mi East 4.6 mph - N/A   Clear
3:55 AM 16.0 °F 8.8 °F 12.9 °F 88% 30.39 in 4.0 mi East 4.6 mph - N/A   Clear
4:55 AM 15.1 °F 6.4 °F 12.9 °F 91% 30.39 in 4.0 mi East 5.8 mph - N/A   Clear
5:55 AM 15.1 °F 7.7 °F 12.9 °F 91% 30.40 in 4.0 mi ESE 4.6 mph - N/A   Clear
6:15 AM 15.8 °F 10.2 °F 12.2 °F 86% 30.35 in 2.0 mi ESE 3.5 mph - N/A   Partly Cloudy
6:22 AM 15.8 °F - 12.2 °F 86% 30.36 in 1.8 mi Calm Calm - N/A   Partly Cloudy
6:26 AM 15.8 °F 8.6 °F 12.2 °F 86% 30.36 in 3.0 mi ESE 4.6 mph - N/A   Clear
6:40 AM 14.0 °F 5.1 °F 12.2 °F 93% 30.35 in 2.0 mi East 5.8 mph - N/A   Clear
6:55 AM 14.0 °F 6.5 °F 12.0 °F 92% 30.41 in 2.0 mi ESE 4.6 mph - N/A   Clear
7:55 AM 17.1 °F 8.7 °F 15.1 °F 92% 30.43 in 2.5 mi ESE 5.8 mph - N/A   Clear
8:26 AM 19.4 °F 8.6 °F 15.8 °F 86% 30.37 in 3.0 mi ESE 9.2 mph - N/A   Clear
8:55 AM 19.9 °F 10.1 °F 17.1 °F 89% 30.43 in 3.0 mi East 8.1 mph - N/A   Clear
9:55 AM 21.0 °F 13.4 °F 19.0 °F 92% 30.43 in 5.0 mi East 5.8 mph - N/A   Clear
10:55 AM 24.1 °F 16.0 °F 19.9 °F 84% 30.42 in 6.0 mi ESE 6.9 mph - N/A   Clear
11:55 AM 28.0 °F 21.7 °F 21.0 °F 75% 30.41 in 8.0 mi SE 5.8 mph - N/A   Clear
12:55 PM 30.0 °F 22.4 °F 21.0 °F 69% 30.38 in 10.0 mi SE 8.1 mph - N/A   Clear
1:55 PM 30.9 °F 23.5 °F 21.9 °F 69% 30.36 in 10.0 mi ESE 8.1 mph - N/A   Clear
2:55 PM 32.0 °F 23.6 °F 23.0 °F 69% 30.34 in 10.0 mi ESE 10.4 mph - N/A   Clear
3:55 PM 33.1 °F 24.9 °F 23.0 °F 66% 30.33 in 10.0 mi ESE 10.4 mph - N/A   Clear
4:55 PM 34.0 °F 26.6 °F 21.9 °F 61% 30.32 in 10.0 mi East 9.2 mph - N/A   Clear
5:55 PM 33.1 °F 25.5 °F 23.0 °F 66% 30.33 in 10.0 mi East 9.2 mph - N/A   Clear
6:55 PM 30.9 °F 23.5 °F 21.9 °F 69% 30.34 in 9.0 mi East 8.1 mph - N/A   Clear
7:55 PM 30.0 °F 22.4 °F 21.9 °F 72% 30.34 in 9.0 mi East 8.1 mph - N/A   Clear
8:55 PM 28.9 °F 21.1 °F 21.9 °F 75% 30.33 in 10.0 mi East 8.1 mph - N/A   Clear
9:55 PM 28.9 °F 19.8 °F 21.9 °F 75% 30.34 in 9.0 mi East 10.4 mph - N/A   Clear
10:55 PM 28.9 °F 21.1 °F 23.0 °F 78% 30.35 in 9.0 mi East 8.1 mph - N/A   Clear
11:55 PM 28.0 °F 20.0 °F 23.0 °F 81% 30.34 in 8.0 mi East 8.1 mph - N/A   Clear